Regional Weather Roundup
Issued by NWS Bismarck, ND

Home | Current Version | Previous Version | Text Only | Print | Product List | Glossary On
Versions: 1 2 3 4 5 6 7 8 9 10 11 12 13 14 15 16 17 18 19 20 21 22 23 24 25 26 27 28 29 30 31 32 33 34 35 36 37 38 39 40 41 42 43 44 45 46 47 48 49 50
000
ASUS43 KBIS 290520
RWRBIS

NWR BROADCAST TEXT
NATIONAL WEATHER SERVICE BISMARCK ND
1200 AM CDT FRI AUG 29 2014

NOTE: "FAIR" INDICATES FEW OR NO CLOUDS BELOW 12,000 FEET WITH NO
SIGNIFICANT WEATHER AND/OR OBSTRUCTIONS TO VISIBILITY.


CITY           SKY/WX    TMP DP  RH WIND       PRES   REMARKS
WILLISTON      CLEAR     70  52  52 NW12      29.77S
MINOT          MOCLDY    72  64  76 S15G23    29.75S
MINOT AFB      PTCLDY    70  69  98 S14       29.73F
BISMARCK       PTCLDY    62  62 100 S3        29.83F
DICKINSON      CLEAR     63  58  83 S10       29.82F
GARRISON         N/A     67  66  97 S6        29.79F
HETTINGER ARPT CLEAR     63  55  75 SE6       29.87F
JAMESTOWN      CLOUDY    66  64  93 S8        29.84F FOG
BEACH            N/A     59  59 100 S3        29.85F
CARRINGTON     MOCLDY    64  64 100 S12       29.83F
CROSBY         FAIR      63  63 100 NW9       29.78R
HARVEY         FAIR      63  63 100 S7        29.79F
HAZEN          FAIR      66  63  88 S10       29.79F
LINTON         FOG       59  59 100 CALM      29.84F VSB 1/4
MANDAN         FAIR      63  63 100 S9        29.83F
OAKES            N/A     64  64 100 SE3       29.85R
RUGBY          FAIR      64  64 100 S8        29.77S
STANLEY        FAIR      63  63 100 SW6       29.77S
TIOGA          FAIR      59  59 100 W7        29.80S
WATFORD CITY   FAIR      66  52  59 SW3       29.77S
$$

CITY           SKY/WX    TMP DP  RH WIND       PRES   REMARKS
GRAND FORKS    CLOUDY    68  64  87 S9        29.83F
GRAND FORKS AF CLOUDY    67  67  99 SW10      29.84F
DEVILS LAKE    CLOUDY    66  61  82 S15       29.79F
FARGO          CLOUDY    66  64  93 S3        29.85S
CANDO          FAIR      66  64  94 S12       29.79F
CAVALIER       MOCLDY    66  64  94 S14       29.78F
GRAFTON        CLOUDY    66  66 100 S10       29.81F
GWINNER        CLOUDY    66  66 100 E5        29.86R
LANGDON        CLOUDY    66  64  94 S13G20    29.79F
ROLLA          MOCLDY    63  63 100 S9        29.79F
WALHALLA         N/A     66  66 100 S6        29.77F
$$

CITY           SKY/WX    TMP DP  RH WIND       PRES   REMARKS
ABERDEEN       CLOUDY    65  65 100 E5        29.84F
MOBRIDGE       PTCLDY    62  62 100 SE6       29.82F
BUFFALO          N/A     65  56  72 SW6       29.82F
RAPID CITY     PTCLDY    60  57  89 CALM      29.93S
GLASGOW        LGT RAIN  64  59  83 N40G55    29.87R
SIDNEY         CLEAR     66  52  59 W10       29.80S
WOLF POINT     CLEAR     69  55  60 VRB3      29.79F
GLENDIVE       CLEAR     66  54  63 CALM      29.84S
MILES CITY     CLEAR     71  47  42 SE3       29.83F
BAKER          CLEAR     62  54  74 CALM      29.87F
$$

CITY           SKY/WX    TMP DP  RH WIND       PRES   REMARKS
BILLINGS       MOCLDY    73  49  42 SW9       29.92R THUNDER
GREAT FALLS    CLOUDY    55  50  82 N16       30.11R
REGINA         LGT RAIN  64  55  72 N13       29.87R
ESTEVAN        PTCLDY    64  61  88 N6        29.77R
$$



USA.gov is the U.S. government's official web portal to all federal, state and local government web resources and services.